Location: Newark
(43.4306°N, 0.3089°E)
Time: 16:19:19
(UTC+00:00)

Vanguard 1 Rocket - Pass Details

Date: 27 August 2019
Orbit: 652 x 4225 km, 34.3° (Epoch: 15 September)

Event Time Altitude Azimuth Distance (km) Brightness Sun altitude
Exits shadow 01:54:26 10° 114° (ESE) 2,221 9.5 -30.4°
Drops below altitude 10° 01:54:33 10° 113° (ESE) 2,263 9.5 -30.4°
Sets 01:57:39 0° 101° (E) 3,455 10.7 -30.1°
